{"data":{"norad_id":64942,"intl_designator":"2025-158L","name":"STARLINK-34742","alt_names":[],"object_type":"PAYLOAD","status":"ACTIVE","operator":null,"country":"US","launch_date":"2025-07-27","launch_site_code":"AFWTR","launch_vehicle":null,"mission":null,"orbit_class":"UNKNOWN","rcs_meters":null,"size_class":null,"mass_kg":null,"dimensions":null,"purposes":["comms"],"wikipedia_slug":null,"has_3d_model":false,"image_url":null,"decayed_at":null,"tle_current":{"epoch":"2026-09-20T22:00:03.000096Z","epoch_age_seconds":88321,"freshness":"FRESH","line1":"1 64942U 25158L   26263.91670139  .00054911  00000+0  16930-2 0  9991","line2":"2 64942  97.2851 122.1879 0001679  88.7601  86.3712 15.33403878  5792","mean_motion":15.33403878,"eccentricity":0.0001679,"inclination_deg":97.2851,"raan_deg":122.1879,"arg_perigee_deg":88.7601,"mean_anomaly_deg":86.3712,"bstar":0.001693,"rev_number":579,"period_min":93.908722982896,"perigee_km":464.51645290826,"apogee_km":466.81460179694,"semimajor_km":6843.8025273526,"source":"CELESTRAK","updated_at":"2026-09-21T09:00:35.488017Z"}}}